Location: Unspecified
(48.8656°N, 0.0000°E)
Time: 01:21:13
(UTC+00:00)

Vanguard 1 - Pass Details

Date: 21 June 2019
Orbit: 655 x 3829 km, 34.2° (Epoch: 16 August)

Event Time Altitude Azimuth Distance (km) Brightness Sun altitude
Rises 03:03:07 0° 230° (SW) 7,435 - -7.2°
Exits shadow 03:07:37 - 225° (SW) 6,397 13.5 -6.7°
Reaches altitude 10° 03:09:22 10° 223° (SW) 5,986 13.4 -6.5°
Maximum altitude 03:23:08 32° 169° (S) 3,215 12.4 -4.9°
Drops below altitude 10° 03:31:39 10° 110° (ESE) 3,678 13.4 -3.9°
Sets 03:34:27 0° 100° (E) 4,316 14.0 -3.6°
